timestamp,wind_dir_avg,wind_spd_avg,wind_spd_max_dir,wind_spd_gust,battery_voltage,lat,long
2022-01-30 00:04:01+00:00,130.0,16.3,131.0,23.66,12.41,47.59359,-54.27349
2022-01-30 00:14:00+00:00,128.0,15.13,136.0,17.89,12.41,47.59359,-54.27349
2022-01-30 00:24:00+00:00,130.0,13.1,128.0,16.89,12.41,47.59359,-54.27349
2022-01-30 00:34:00+00:00,130.0,16.33,136.0,18.83,12.41,47.59359,-54.27349
2022-01-30 00:44:00+00:00,142.0,19.45,136.0,23.97,12.41,47.59359,-54.27349
2022-01-30 00:54:00+00:00,142.0,20.71,152.0,24.25,12.41,47.59359,-54.27349
2022-01-30 01:04:00+00:00,142.0,21.59,135.0,29.54,12.41,47.59359,-54.27349
2022-01-30 01:14:01+00:00,158.0,19.89,159.0,28.46,12.41,47.59359,-54.27349
2022-01-30 01:24:01+00:00,147.0,20.55,143.0,23.44,12.41,47.59359,-54.27349
2022-01-30 01:34:01+00:00,152.0,19.24,160.0,25.64,12.41,47.59359,-54.27349
2022-01-30 01:44:01+00:00,164.0,19.69,146.0,24.66,12.41,47.59359,-54.27349
2022-01-30 01:54:01+00:00,168.0,24.44,175.0,31.12,12.41,47.59359,-54.27349
2022-01-30 02:04:01+00:00,166.0,23.38,158.0,31.1,12.41,47.59359,-54.27349
2022-01-30 02:14:01+00:00,165.0,26.47,158.0,32.92,12.41,47.59359,-54.27349
2022-01-30 02:24:01+00:00,168.0,25.52,160.0,29.58,12.41,47.59359,-54.27349
2022-01-30 02:34:01+00:00,166.0,23.69,175.0,29.79,12.41,47.59359,-54.27349
2022-01-30 02:44:01+00:00,168.0,24.88,169.0,31.11,12.41,47.59359,-54.27349
2022-01-30 02:54:01+00:00,180.0,21.0,186.0,25.69,12.41,47.59359,-54.27349
2022-01-30 03:04:01+00:00,169.0,24.26,169.0,28.99,12.41,47.59359,-54.27349
2022-01-30 03:14:01+00:00,178.0,22.32,180.0,26.36,12.41,47.59359,-54.27349
2022-01-30 03:24:01+00:00,170.0,22.78,169.0,28.94,12.41,47.59359,-54.27349
2022-01-30 03:34:01+00:00,176.0,22.37,178.0,28.34,12.41,47.59359,-54.27349
2022-01-30 03:44:01+00:00,179.0,21.43,174.0,24.8,12.41,47.59359,-54.27349
2022-01-30 03:54:01+00:00,178.0,22.05,176.0,26.35,12.41,47.59359,-54.27349
2022-01-30 04:04:01+00:00,182.0,22.41,191.0,27.24,12.41,47.59359,-54.27349
2022-01-30 04:14:01+00:00,180.0,21.54,168.0,26.74,12.41,47.59359,-54.27349
2022-01-30 04:24:01+00:00,179.0,22.39,169.0,27.32,12.41,47.59359,-54.27349
2022-01-30 04:34:01+00:00,181.0,22.37,176.0,28.0,12.41,47.59359,-54.27349
2022-01-30 04:44:01+00:00,181.0,20.8,173.0,23.72,12.41,47.59359,-54.27349
2022-01-30 04:54:01+00:00,185.0,22.31,187.0,27.66,12.41,47.59359,-54.27349
2022-01-30 05:04:01+00:00,181.0,21.04,186.0,24.86,12.41,47.59359,-54.27349
2022-01-30 05:14:01+00:00,178.0,22.65,176.0,27.84,12.41,47.59359,-54.27349
2022-01-30 05:24:01+00:00,181.0,20.93,182.0,24.29,12.41,47.59359,-54.27349
2022-01-30 05:34:01+00:00,186.0,17.82,193.0,22.27,12.41,47.59359,-54.27349
2022-01-30 05:44:01+00:00,180.0,18.9,189.0,23.85,12.41,47.59359,-54.27349
2022-01-30 05:54:01+00:00,184.0,18.57,180.0,21.56,12.41,47.59359,-54.27349
2022-01-30 06:04:01+00:00,191.0,19.72,194.0,25.06,12.41,47.59359,-54.27349
2022-01-30 06:14:01+00:00,188.0,21.35,176.0,25.37,12.41,47.59359,-54.27349
2022-01-30 06:24:01+00:00,188.0,19.99,195.0,24.97,12.41,47.59359,-54.27349
2022-01-30 06:34:01+00:00,191.0,20.04,199.0,24.64,12.41,47.59359,-54.27349
2022-01-30 06:44:01+00:00,196.0,19.95,193.0,23.1,12.41,47.59359,-54.27349
2022-01-30 06:54:01+00:00,194.0,20.54,197.0,23.44,12.41,47.59359,-54.27349
2022-01-30 07:04:01+00:00,194.0,20.04,196.0,23.95,12.41,47.59359,-54.27349
2022-01-30 07:14:00+00:00,196.0,17.67,192.0,21.52,12.33,47.59359,-54.27349
2022-01-30 07:24:00+00:00,190.0,19.42,193.0,22.31,12.33,47.59359,-54.27349
2022-01-30 07:34:00+00:00,192.0,19.23,197.0,23.01,12.33,47.59359,-54.27349
2022-01-30 07:44:00+00:00,192.0,21.43,194.0,26.82,12.33,47.59359,-54.27349
2022-01-30 07:54:00+00:00,185.0,19.25,175.0,24.56,12.33,47.59359,-54.27349
2022-01-30 08:04:00+00:00,196.0,20.06,202.0,23.47,12.33,47.59359,-54.27349
2022-01-30 08:14:00+00:00,190.0,17.96,189.0,21.69,12.33,47.59359,-54.27349
2022-01-30 08:24:00+00:00,189.0,18.94,192.0,22.55,12.33,47.59359,-54.27349
2022-01-30 08:34:00+00:00,209.0,17.12,216.0,20.61,12.33,47.59359,-54.27349
2022-01-30 08:44:00+00:00,211.0,17.77,209.0,21.93,12.33,47.59359,-54.27349
2022-01-30 08:54:00+00:00,215.0,14.16,206.0,17.46,12.33,47.59359,-54.27349
2022-01-30 09:04:00+00:00,241.0,13.38,235.0,16.0,12.33,47.59359,-54.27349
2022-01-30 09:14:01+00:00,234.0,11.11,246.0,14.12,12.41,47.59359,-54.27349
2022-01-30 09:24:01+00:00,239.0,10.76,250.0,14.44,12.41,47.59359,-54.27349
2022-01-30 09:34:01+00:00,213.0,9.52,214.0,13.09,12.41,47.59359,-54.27349
2022-01-30 09:44:01+00:00,210.0,13.18,212.0,15.64,12.41,47.59359,-54.27349
2022-01-30 09:54:01+00:00,219.0,13.73,216.0,16.02,12.41,47.59359,-54.27349
2022-01-30 10:04:01+00:00,227.0,14.51,224.0,16.34,12.41,47.59359,-54.27349
2022-01-30 10:14:01+00:00,219.0,14.28,227.0,16.51,12.33,47.59359,-54.27349
2022-01-30 10:24:01+00:00,204.0,15.72,202.0,18.38,12.33,47.59359,-54.27349
2022-01-30 10:34:01+00:00,212.0,15.32,205.0,17.61,12.33,47.59359,-54.27349
2022-01-30 10:44:01+00:00,210.0,14.64,205.0,16.6,12.33,47.59359,-54.27349
2022-01-30 10:54:01+00:00,206.0,13.56,211.0,15.15,12.33,47.59359,-54.27349
2022-01-30 11:04:01+00:00,206.0,14.12,200.0,16.85,12.33,47.59359,-54.27349
2022-01-30 11:14:00+00:00,204.0,10.1,204.0,11.26,12.33,47.59359,-54.27349
2022-01-30 11:24:00+00:00,203.0,12.56,207.0,14.67,12.33,47.59359,-54.27349
2022-01-30 11:34:00+00:00,208.0,9.97,219.0,12.17,12.33,47.59359,-54.27349
2022-01-30 11:44:00+00:00,202.0,11.13,206.0,12.36,12.33,47.59359,-54.27349
2022-01-30 11:54:00+00:00,208.0,13.53,204.0,15.72,12.33,47.59359,-54.27349
2022-01-30 12:04:00+00:00,230.0,12.47,247.0,14.67,12.33,47.59359,-54.27349
2022-01-30 12:14:00+00:00,198.0,15.13,219.0,17.56,12.33,47.59359,-54.27349
2022-01-30 12:24:00+00:00,215.0,11.34,204.0,15.41,12.33,47.59359,-54.27349
2022-01-30 12:34:00+00:00,195.0,16.42,201.0,20.8,12.33,47.59359,-54.27349
2022-01-30 12:44:00+00:00,195.0,17.86,198.0,20.1,12.33,47.59359,-54.27349
2022-01-30 12:54:00+00:00,194.0,19.91,189.0,24.83,12.33,47.59359,-54.27349
2022-01-30 13:04:00+00:00,192.0,17.61,190.0,20.52,12.33,47.59359,-54.27349
2022-01-30 13:14:01+00:00,203.0,18.63,205.0,22.56,12.33,47.59359,-54.27349
2022-01-30 13:24:01+00:00,209.0,22.29,203.0,28.64,12.33,47.59359,-54.27349
2022-01-30 13:34:01+00:00,215.0,20.55,213.0,22.33,12.33,47.59359,-54.27349
2022-01-30 13:44:01+00:00,216.0,16.64,218.0,20.47,12.33,47.59359,-54.27349
2022-01-30 13:54:01+00:00,217.0,18.85,214.0,21.62,12.33,47.59359,-54.27349
2022-01-30 14:04:01+00:00,219.0,19.0,213.0,20.92,12.33,47.59359,-54.27349
2022-01-30 14:14:01+00:00,223.0,15.2,220.0,20.19,12.41,47.59359,-54.27349
2022-01-30 14:24:01+00:00,223.0,15.81,223.0,19.44,12.41,47.59359,-54.27349
2022-01-30 14:34:01+00:00,220.0,16.31,237.0,22.5,12.41,47.59359,-54.27349
2022-01-30 14:44:01+00:00,216.0,15.96,221.0,19.39,12.41,47.59359,-54.27349
2022-01-30 14:54:01+00:00,218.0,17.66,230.0,21.24,12.41,47.59359,-54.27349
2022-01-30 15:04:01+00:00,214.0,16.46,218.0,20.01,12.41,47.59359,-54.27349
2022-01-30 15:14:00+00:00,216.0,15.93,222.0,19.81,12.73,47.59359,-54.27349
2022-01-30 15:24:00+00:00,217.0,15.48,225.0,25.48,12.73,47.59359,-54.27349
2022-01-30 15:34:00+00:00,217.0,16.0,222.0,19.11,12.73,47.59359,-54.27349
2022-01-30 15:44:00+00:00,215.0,17.68,217.0,20.49,12.73,47.59359,-54.27349
2022-01-30 15:54:00+00:00,213.0,16.31,214.0,19.62,12.73,47.59359,-54.27349
2022-01-30 16:04:00+00:00,219.0,17.5,218.0,19.63,12.73,47.59359,-54.27349
2022-01-30 16:14:00+00:00,217.0,16.13,221.0,18.94,12.97,47.59359,-54.27349
2022-01-30 16:24:00+00:00,220.0,16.83,220.0,19.82,12.97,47.59359,-54.27349
2022-01-30 16:34:00+00:00,215.0,15.34,212.0,18.56,12.97,47.59359,-54.27349
2022-01-30 16:44:00+00:00,218.0,18.28,219.0,20.47,12.97,47.59359,-54.27349
2022-01-30 16:54:00+00:00,214.0,16.54,208.0,21.31,12.97,47.59359,-54.27349
2022-01-30 17:04:00+00:00,213.0,15.37,217.0,17.69,12.97,47.59359,-54.27349
2022-01-30 17:14:00+00:00,217.0,15.68,209.0,18.62,13.44,47.59359,-54.27349
2022-01-30 17:24:00+00:00,213.0,14.96,215.0,17.91,13.44,47.59359,-54.27349
2022-01-30 17:34:00+00:00,215.0,14.93,219.0,18.2,13.44,47.59359,-54.27349
2022-01-30 17:44:00+00:00,222.0,13.66,223.0,15.89,13.44,47.59359,-54.27349
2022-01-30 17:54:00+00:00,213.0,15.12,214.0,17.68,13.44,47.59359,-54.27349
2022-01-30 18:04:00+00:00,213.0,14.55,217.0,17.15,13.44,47.59359,-54.27349
2022-01-30 18:14:00+00:00,218.0,16.84,216.0,21.74,13.05,47.59359,-54.27349
2022-01-30 18:24:00+00:00,216.0,15.15,216.0,17.7,13.05,47.59359,-54.27349
2022-01-30 18:34:00+00:00,225.0,15.4,223.0,19.24,13.05,47.59359,-54.27349
2022-01-30 18:44:00+00:00,224.0,17.01,225.0,21.95,13.05,47.59359,-54.27349
2022-01-30 18:54:00+00:00,226.0,18.92,227.0,25.56,13.05,47.59359,-54.27349
2022-01-30 19:04:00+00:00,229.0,17.81,226.0,23.04,13.05,47.59359,-54.27349
2022-01-30 19:14:01+00:00,228.0,18.22,226.0,21.76,12.97,47.59359,-54.27349
2022-01-30 19:24:01+00:00,228.0,18.68,218.0,25.95,12.97,47.59359,-54.27349
2022-01-30 19:34:01+00:00,226.0,17.3,230.0,20.4,12.97,47.59359,-54.27349
2022-01-30 19:44:01+00:00,228.0,17.84,222.0,22.34,12.97,47.59359,-54.27349
2022-01-30 19:54:01+00:00,229.0,16.4,234.0,20.56,12.97,47.59359,-54.27349
2022-01-30 20:04:01+00:00,230.0,14.83,230.0,20.54,12.97,47.59359,-54.27349
2022-01-30 20:14:01+00:00,233.0,15.09,237.0,19.18,12.65,47.59359,-54.27349
2022-01-30 20:24:01+00:00,232.0,17.6,232.0,20.35,12.65,47.59359,-54.27349
2022-01-30 20:34:01+00:00,232.0,13.48,234.0,20.61,12.65,47.59359,-54.27349
2022-01-30 20:44:01+00:00,232.0,13.32,245.0,17.17,12.65,47.59359,-54.27349
2022-01-30 20:54:01+00:00,238.0,16.74,242.0,20.68,12.65,47.59359,-54.27349
2022-01-30 21:04:01+00:00,240.0,15.9,242.0,19.99,12.65,47.59359,-54.27349
2022-01-30 21:14:00+00:00,241.0,17.25,239.0,20.68,12.57,47.59359,-54.27349
2022-01-30 21:24:00+00:00,240.0,17.07,238.0,21.32,12.57,47.59359,-54.27349
2022-01-30 21:34:00+00:00,243.0,15.23,248.0,19.63,12.57,47.59359,-54.27349
2022-01-30 21:44:00+00:00,242.0,19.49,239.0,20.94,12.57,47.59359,-54.27349
2022-01-30 21:54:00+00:00,232.0,13.94,235.0,20.62,12.57,47.59359,-54.27349
2022-01-30 22:04:00+00:00,238.0,17.08,243.0,20.59,12.57,47.59359,-54.27349
2022-01-30 22:14:00+00:00,235.0,17.62,234.0,21.62,12.49,47.59359,-54.27349
2022-01-30 22:24:00+00:00,238.0,14.95,242.0,19.86,12.49,47.59359,-54.27349
2022-01-30 22:34:00+00:00,231.0,19.11,227.0,22.88,12.49,47.59359,-54.27349
2022-01-30 22:44:00+00:00,238.0,18.8,234.0,22.05,12.49,47.59359,-54.27349
2022-01-30 22:54:00+00:00,231.0,15.23,240.0,20.33,12.49,47.59359,-54.27349
2022-01-30 23:04:00+00:00,246.0,18.14,251.0,26.82,12.49,47.59359,-54.27349
2022-01-30 23:14:01+00:00,239.0,19.17,238.0,21.07,12.49,47.59359,-54.27349
2022-01-30 23:24:01+00:00,233.0,17.15,231.0,21.84,12.49,47.59359,-54.27349
2022-01-30 23:34:01+00:00,228.0,14.32,232.0,21.18,12.49,47.59359,-54.27349
2022-01-30 23:44:01+00:00,233.0,14.59,244.0,20.3,12.49,47.59359,-54.27349
2022-01-30 23:54:01+00:00,234.0,13.63,241.0,18.88,12.49,47.59359,-54.27349
